Погода в Татарбунарах

Украина / Одесская область     45°50′12″N   29°37′00″E
темп.,
°C
ветер,
м/с
пор.,
м/с
влажн.,
%
обл.,
%
осадки,
мм/ч
давл.,
гПа
погр.,
м
5 марта, пт
пт523:00+8юз497324 0.0 1013171
02:00+7юз477821 0.0 1012121
05:00+6зюз447151 0.0 101267
08:00+7ссз356425 0.0 1012154
11:00+12сз01510 0.0 1012441
14:00+16зюз453632 0.0 10111146
17:00+14зюз3643100 0.0 1011194
20:00+11зюз344469 0.0 101258
6 марта, сб
сб623:00+9сз8137434 0.0 1014385
02:00+6ссз6117936 0.0 1017651
05:00+4с7107294 0.0 1019900
08:00+3с7106697 0.0 1023930
11:00+5с7944100 0.0 10251263
14:00+6с7837100 0.0 10251699
17:00+5с573167 0.0 10271969
20:00+2с354233 0.0 1029134
7 марта, вс
вс723:00+1ссз12440 0.0 103022
02:000зсз36630 0.0 1031117
05:00−1сз33650 0.0 102984
08:00+1зсз22510 0.0 1029185
11:00+5зюз67410 0.0 10281449
14:00+7зюз79350 0.0 10251663
17:00+7зюз69380 0.0 10221456
20:00+3ююз610560 0.0 1021271
8 марта, пн
пн823:00+2ююз486917 0.0 1021193
02:00+1юз4107348 0.0 1019241
05:000юз47830 0.0 1018146
08:00+2зюз34760 0.0 1018194
11:00+6ююз215029 0.0 1018630
14:00+8ююз333864 0.0 10161179
17:00+8ю234467 0.0 1014708
20:00+4ююз357033 0.0 1015130
9 марта, вт
вт923:00+4ююз228289 0.0 101522
02:00+3с118164 0.0 101522
05:00+2с59710 0.0 1016205
08:00+3с610670 0.0 1018499
11:00+5с68475 0.0 1020849
14:00+7с56392 0.0 10201369
17:00+5ссв56379 0.0 10191294
20:00+3ссв37494 0.0 1022274